Location: Newark
(40.3500°N, 15.2333°E)
Time: 12:34:32
(UTC+00:00)

NOAA 15 - Pass Details

Date: 01 March 2020
Orbit: 797 x 813 km, 98.7° (Epoch: 05 April)

Event Time Altitude Azimuth Distance (km) Brightness Sun altitude
Rises 17:29:56 0° 164° (SSE) 3,321 7.7 -8.2°
Reaches altitude 10° 17:32:16 10° 164° (SSE) 2,394 6.9 -8.7°
Maximum altitude 17:37:34 89° 78° (ENE) 820 4.6 -9.7°
Drops below altitude 10° 17:42:55 10° 347° (NNW) 2,409 7.2 -10.7°
Sets 17:45:16 0° 347° (NNW) 3,343 8.0 -11.1°
